Погода в Тайпаке

Погода в Тайпаке : погода сейчас, прогноз погоды и архив. Всё, что Вы хотите узнать о погоде в Тайпаке!

Хотите узнать прогноз погоды в Тайпаке? Тогда Вам сюда: Погода в Тайпаке

Поиск расширенной информации на нашем сайте:

Другие новости

Новости СМИ2

Главная страница сайта

Новости сайта

03.07.2017

Напоминаем, что на нашем специализированном сайте Метеоцентр.Азия вы можете получить высокодетализированные автоматические прогнозы погоды по пунктам России, СНГ и мира в авиационном формате (включающие направление и скорость ветра, видимость, явления погоды, количество и форму облачности, нижнюю и верхнюю границу облачности).


Погода в Тайпаке - сегодня

Время (UTC), дата Ветер
(°,м/с) 
Видим.   Явления Облачность Т
(°С)
Тd
(°С)
f(%) Тe
(°С)
Pmin
(гПа)
dP
(гПа)
Po
(мм)
O2
(г/м3)
Тmin Tmax R s Состояние
почвы
12 20.10.17 320 (СЗ) 10 км  {дождь}  8/0 средняя 
[Ac trans]
+15.1 +5 51 +16  1015.5  761  290           
15 20.10.17 320 (СЗ) н/о    ясно 
+11.3 +1.1 49 +12  1016.4  0.9  762  295    +15.8  0.0     
18 20.10.17 320 (СЗ) н/о    ясно 
+5.4 +1.1 74 +5  1017.4  763  301    +15.8  0.0     
21 20.10.17 360 (С) н/о    ясно 
+3 +0.1 81 +2  1017.7  0.3  763  304           
00 21.10.17 360 (С) н/о    ясно 
+0.9 -0.5 90 1017.8  0.1  763  307           
03 21.10.17 360 (С) 10 км    8/0 средняя 
[Ac trans]
+0.1 -0.5 96 -1  1017.9  0.1  763  308  -0.1        сухая 
06 21.10.17 360 (С) 10 км    6/0 верхняя 
[Ci fib]
+6.2 +0 64 +6  1018.2  0.3  764  301  -0.1         
09 21.10.17 320 (СЗ) 10 км    8/0 верхняя 
[Ci fib]
+10.3 -4.1 36 +10  1017.3  -0.9  763  297           
12 21.10.17 тихо ()   10 км    8/0 средняя 
[Ac trans]
+10.6 -4.4 35 +11  1016.8  -0.5  762  296           
15 21.10.17 тихо ()   н/о    8/0 средняя 
[Ac trans]
+6.4 -3.5 49 +6  1017  0.2  763  301    +11.4       
18 21.10.17 тихо ()   н/о    8/0 средняя 
[Ac trans]
+5.4 -2 59 +5  1017.4  0.4  763  302    +11.4       
21 21.10.17 тихо ()   н/о    ясно 
+3.5 -1.8 68 +4  1017.1  -0.3  763  304           
00 22.10.17 тихо ()   н/о    ясно 
+2.4 -0.6 81 +2  1017  -0.1  763  305           
03 22.10.17 360 (С) н/о    10/0 средняя 
[Ac As]
+2.5 +0.4 86 +2  1016.3  -0.7  762  304           
06 22.10.17 090 (В) 10 км    10/0 средняя 
[Ac As]
+5.2 +1.4 76 +5  1016.2  -0.1  762  301  +2.2         
09 22.10.17 140 (ЮВ) 10 км    10/10 600 м 
[Sc]
+7.1 -0 61 +7  1014.2  -2  761  299           
12 22.10.17 тихо ()   10 км  слаб. дождь  10/10 600 м 
[Ns]
+5 +3 87 +5  1012.7  -1.5  759  300           
15 22.10.17 090 (В) н/о  слаб. дождь  10/10 600 м 
[Ns]
+3.9 +2.7 92 +3  1012.1  -0.6  759  301    +8.5     
18 22.10.17 050 (СВ) н/о  слаб. дождь  10/10 600 м 
[Ns]
+2.9 +2.1 94 +1  1010.9  -1.2  758  302    +8.5     
21 22.10.17 050 (СВ) н/о  слаб. дождь  10/10 600 м 
[Ns]
+2 +1.5 96 +1  1010.7  -0.2  758  303           
00 23.10.17 тихо ()   н/о  слаб. дождь  10/10 600 м 
[Ns]
+1.7 +1.2 96 +2  1011.1  0.4  758  303           
03 23.10.17 360 (С) 10 км  {дождь}  8/0 средняя 
[Ac trans]
+0.8 -0 94 -2  1013.1  760  305  +0.6         
06 23.10.17 340 (С) 10 км  {дождь}  ясно 
+2.7 -0.9 77 +1  1015.5  2.4  761  304  +0.6       
09 23.10.17 340 (С) 10 км    6/0 средняя 
[Ac trans]
+5.9 -1 61 +4  1017.3  1.8  763  301           
12 23.10.17 290 (З) 10 км    10/10 600 м 
[Sc]
+3.8 +0.7 80 +2  1019.1  1.8  764  304           
Время (UTC), дата Ветер
(°,м/с) 
Видим.   Явления Облачность Т
(°С)
Тd
(°С)
f(%) Тe
(°С)
Pmin
(гПа)
dP
(гПа)
Po
(мм)
O2
(г/м3)
Тmin Tmax R s Состояние
почвы

Для получения пояснительной информации подведите курсор к названию столбца.

ПОГОДА в Тайпаке - архив

Всё, что Вы хотите узнать о погоде в Тайпаке - удобно и подробно!

Выберите нужную дату (начиная с 1 января 2015* года) и нажмите кнопку "Найти".
Будут отображены архивные сводки погоды по пункту Тайпак, начиная с указанной даты.


Отображать данные в формате CSV (для использования в таблицах Excel)


Внимание! Наш архив погоды предназначен исключительно для личного некоммерческого использования в познавательных целях. Если Вам необходимы официальные справки о состоянии погоды (для производственных, юридических, коммерческих и т.п. целей), обращайтесь в органы Росгидромета.

*Примечание: данная дата относится к архиву по метеостанциям СССР (Россия, СНГ, Балтия).
Архив по метеостанциям Зарубежной Европы и Азии (кроме Китая) хранится 10 дней, по другим регионам земного шара (Китай, Африка, Америка, Австралия, Океания) - 1 день.

Тайпак - район местоположения метеостанции


Название, широта, долгота, высота метеостанции:
Тайпак (Калмыково) 49.1°ш. 51.9°д. 2 м над ур. моря [Казахстан]

Дополнительная информация

В oтличие oт бoльшинства пoгoдных сайтoв мы публикуем пoдрoбную метеoинфoрмацию в детальнoм прoфессиoнальнoм фoрмате.

Характеристики температуры и влажнoсти вoздуха измеряются на высoте 2 м в тени вдали oт зданий и деревьев.
Скoрoсть ветра измеряется на высoте 10 м (на урoвне рoста челoвека скoрoсть ветра ниже в 1.5-2 раза). Если метеoстанция нахoдится в гoрoде или в лесу, тo скoрoсть ветра занижена на 2-4 м/с пo сравнению с oткрытым местoм. Скoрoсть ветра над акватoриями крупных рек и oзёр, а также на вершинах хoлмoв на 2-5 м/с выше, чем в oбычных услoвиях.
Атмoсфернoе давление в разных тoчках местнoсти мoжет значительнo oтличаться oт давления на метеoстанции, в зависимoсти oт услoвий рельефа (при пoдъёме на 10 м давление пoнижается примернo на 1 мм рт.ст.).